Regional Weather Roundup
Issued by NWS San Angelo, TX

Home | Current Version | Previous Version | Text Only | Print | Product List | Glossary On
Versions: 1 2 3 4 5 6 7 8 9 10 11 12 13 14 15 16 17 18 19 20 21 22 23 24 25 26 27 28 29 30 31 32 33 34 35 36 37 38 39 40 41 42 43 44 45 46 47 48 49 50
000
ASUS44 KSJT 282111
RWRSJT
WEST CENTRAL TEXAS REGIONAL WEATHER ROUNDUP
NATIONAL WEATHER SERVICE SAN ANGELO TX
400 PM CDT SAT MAY 28 2016

NOTE: "FAIR" INDICATES FEW OR NO CLOUDS BELOW 12,000 FEET WITH NO
SIGNIFICANT WEATHER AND/OR OBSTRUCTIONS TO VISIBILITY.

TXZ049-054-064>066-071>073-076>078-098-099-113-114-127-128-139-140-
154-155-168>170-282200
...LOCATIONS ACROSS WEST CENTRAL TEXAS...

CITY           SKY/WX    TMP DP  RH WIND       PRES   REMARKS
SAN ANGELO     MOSUNNY   91  63  39 SE8       29.92F
ABILENE        SUNNY     90  59  35 SW8       29.94F
DYESS AFB      MOSUNNY   89  64  43 SE6       29.92S
JUNCTION       MOSUNNY   91  67  44 S9        29.93F
SWEETWATER     SUNNY     91  51  26 S9        29.98S
BROWNWOOD      MOSUNNY   90  70  51 S10       29.93S
COLEMAN        PTCLDY    91  63  39 SE10      29.94F
SONORA         SUNNY     88  66  48 S15G22    29.99S
OZONA          FAIR      86  64  48 S14G20    29.98S
BRADY          NOT AVBL
$$

TEXAS PANHANDLE/OKLAHOMA PANHANDLE

CITY           SKY/WX    TMP DP  RH WIND       PRES   REMARKS
AMARILLO       SUNNY     83  43  24 SW12      30.02F
BORGER         SUNNY     82  42  24 S9        30.01S
CANADIAN       SUNNY     82  47  29 N3        29.98S
DALHART        SUNNY     79  42  26 S10G17    30.04F
DUMAS          CLEAR     81  44  26 SE5       30.03S
GUYMON         NOT AVBL
HEREFORD       CLEAR     85  34  16 SE3       30.02F
PAMPA          CLEAR     81  46  29 CALM      30.03F
PERRYTON       SUNNY     83  44  25 NW10G17   29.99F
$$

SOUTHERN PANHANDLE/SOUTH PLAINS/ROLLING PLAINS

CITY           SKY/WX    TMP DP  RH WIND       PRES   REMARKS
LUBBOCK        MOSUNNY   85  38  18 VRB5      29.99S
SNYDER           N/A     89  46  22 CALM      29.95F
CHILDRESS      SUNNY     84  46  26 CALM      29.97S
SEMINOLE       CLEAR     92  22   8 S12G20    29.97F
$$

PERMIAN BASIN

CITY           SKY/WX    TMP DP  RH WIND       PRES   REMARKS
MIDLAND        MOSUNNY   94  44  17 S12G23    29.93S
ODESSA         SUNNY     93  46  19 S14G21    29.94S
WINK           SUNNY     93  17   6 CALM      29.90F
$$

FAR WEST/SOUTHWEST MOUNTAINS/TRANS PECOS

CITY           SKY/WX    TMP DP  RH WIND       PRES   REMARKS
ALPINE         CLEAR     90  32  12 S16G24    30.05F
DRYDEN           N/A     89  66  46 E20G28    29.90F
EL PASO        MOSUNNY   87  12   6 MISG      29.96F
FORT STOCKTON  NOT AVBL
GUADALUPE PASS NOT AVBL
MARFA          SUNNY     86  26  11 VRB3G22   30.04F
PECOS          CLEAR     95  17   6 NE12G18   29.89F
$$

DALLAS/FORT WORTH METROPLEX

CITY           SKY/WX    TMP DP  RH WIND       PRES   REMARKS
DFW AIRPORT    MOSUNNY   86  72  62 S7        29.92F
FTW MEACHAM    SUNNY     89  71  55 SE7       29.91F
DAL-EXECUTIVE  MOSUNNY   85  73  67 E7        29.93F
GRAND PRAIRIE  MOSUNNY   84  72  65 E10       29.94F
ADDISON        MOSUNNY   84  72  65 SE8       29.95F
MESQUITE       MOCLDY    81  73  78 SE8       29.95F
LANCASTER      MOCLDY    82  72  72 E5        29.95F
$$

NORTH CENTRAL TEXAS

CITY           SKY/WX    TMP DP  RH WIND       PRES   REMARKS
SHRMAN/DENISON PTCLDY    82  66  57 SW8       29.96S
GAINESVILLE    MOSUNNY   83  71  67 SE10      29.96S
BRIDGEPORT     CLEAR     87  71  58 CALM      29.93F
DENTON         SUNNY     86  71  60 S9G17     29.92F
WAXAHACHIE     MOCLDY    87  76  69 SE7       29.95S
GRANBURY       CLEAR     89  71  55 SE5       29.92F
$$

WESTERN NORTH TEXAS

CITY           SKY/WX    TMP DP  RH WIND       PRES   REMARKS
WICHITA FALLS  SUNNY     85  64  49 NW5       29.92F
VERNON         CLEAR     85  47  26 CALM      29.95S
BRECKENRIDGE   CLEAR     92  60  33 SW7       29.91F HAZE
COMANCHE       SUNNY     90  70  52 S5        29.93F
$$

CENTRAL AND SOUTH CENTRAL TEXAS

CITY           SKY/WX    TMP DP  RH WIND       PRES   REMARKS
AUSTIN/BERGSTM MOSUNNY   89  73  59 S13       29.91F
WACO           MOSUNNY   88  72  58 S10       29.93F
HILLSBORO      PTCLDY    85  72  65 S7        29.94F
TEMPLE         MOSUNNY   89  75  63 S14       29.93F
KILLEEN-GRAY   MOSUNNY   89  73  59 S12       29.92F
FORT HOOD      MOSUNNY   89  72  57 S9G17     29.91S
GEORGETOWN     NOT AVBL
LAGO VISTA     FAIR      90  71  52 SE8       29.95F
SAN MARCOS     MOSUNNY   90  73  58 S14       29.92F
NEW BRAUNFELS  MOSUNNY   91  73  55 SE14G20   29.91S
RANDOLPH AFB   MOSUNNY   89  76  65 S13       29.91F
SAN ANTONIO    MOSUNNY   91  72  53 S15       29.91F
STINSON        MOSUNNY   93  73  52 SE15      29.88F
PLEASANTON     NOT AVBL
LA GRANGE        N/A     90  76  64 S10G17    29.92S
GIDDINGS       PTCLDY    89  71  56 S7        29.97F
$$

EAST TEXAS

CITY           SKY/WX    TMP DP  RH WIND       PRES   REMARKS
PARIS          MOSUNNY   82  64  54 SE7       29.97F
CLARKSVILLE    NOT AVBL
TYLER          CLOUDY    84  71  65 CALM      29.98F
LONGVIEW       MOSUNNY   84  71  65 W7        29.97F
PALESTINE      MOCLDY    86  74  66 W6        29.98F
NACOGDOCHES    MOSUNNY   86  73  66 W7        29.97S
$$

TEXAS HILL COUNTRY AND EDWARDS PLATEAU

CITY           SKY/WX    TMP DP  RH WIND       PRES   REMARKS
LLANO          PTCLDY    93  73  52 S7        29.95F
HORSESHOE BAY  NOT AVBL
KERRVILLE      SUNNY     92  72  53 S13G18    29.95F
FREDERICKSBRG  MOSUNNY   89  67  49 S9        29.95F
ROCKSPRINGS    PTCLDY    86  72  62 SE14      29.97F
HONDO          PTSUNNY   91  73  55 SE16G22   29.91F
UVALDE         CLEAR     90  73  57 S13G18    29.88F
DEL RIO        MOSUNNY   92  70  48 SE14G22   29.84F
$$

SOUTHEAST TEXAS

CITY           SKY/WX    TMP DP  RH WIND       PRES   REMARKS
COLLEGE STN    MOSUNNY   89  73  59 S10       29.94F
CALDWELL       CLEAR     90  70  51 SE12      29.96F
CROCKETT       CLOUDY    86  73  66 SW5       29.99F
BRENHAM        PTSUNNY   90  73  57 S10G16    29.95S
HUNTSVILLE     MOSUNNY   89  71  55 VRB6      29.96F
CONROE         MOSUNNY   89  70  53 SW7       29.96F
HOUSTON BUSH   MOSUNNY   88  68  51 S10       29.95S
HOUSTON HOBBY  MOSUNNY   89  71  55 S10G18    29.96S
PERLAND        PTSUNNY   90  71  53 S10G21    29.98S
WHARTON        PTCLDY    89  71  56 S14       29.96F
$$

THE UPPER TEXAS COAST

CITY           SKY/WX    TMP DP  RH WIND       PRES   REMARKS
ORANGE         CLEAR     86  66  51 S8        30.01S
PORT ARTHUR    SUNNY     88  70  55 SE8       29.98F
GALVESTON      MOSUNNY   83  76  79 SE9       29.99S
ANGLETON       SUNNY     87  71  58 S15       29.97S
BAY CITY       CLEAR     87  72  61 S8        29.97S
$$

TEXAS COASTAL BEND, RIO GRANDE PLAINS DEEP SOUTH TEXAS

CITY           SKY/WX    TMP DP  RH WIND       PRES   REMARKS
VICTORIA       PTSUNNY   88  73  61 S16       29.94F
BEEVILLE       CLOUDY    87  77  73 SE15G22   29.91F
ROCKPORT       MOSUNNY   87  75  67 SE15G24   29.92F
PORT ARANSAS   CLOUDY    85  76  74 SE15G21   29.93S
PORT LAVACA    PTCLDY    87  75  66 S13G18    29.95S
CORPUS CHRISTI PTSUNNY   87  75  67 SE20G26   29.91S
KINGSVILLE NAS MOSUNNY   87  78  74 SE21G30   29.89F
COTULLA        MOSUNNY   96  68  39 S12G20    29.84F
LAREDO         PTSUNNY   96  74  48 SE17      29.84F
BROWNSVILLE    PTSUNNY   88  75  65 S17       29.89F
PORT ISABEL    CLOUDY    88  76  67 SE20G26   29.88F
HEBBRONVILLE   PTCLDY    93  70  46 SE17      29.87F
MCALLEN        PTSUNNY   92  75  57 SE17      29.86F
WESLACO        PTSUNNY   92  73  53 S16       29.86F
FALFURRIAS     PTCLDY    93  73  52 E12G17    29.86F
EDINBURG       MOCLDY    93  72  50 S15       29.86F
$$




USA.gov is the U.S. government's official web portal to all federal, state and local government web resources and services.